^^
Grace C. Lehan Memorial Weather Station Historical Data
Daily Summary for January 7, 2021 Units:  Metric    English   Both
Daily Weekly Monthly Yearly
  High: Low: Average:
Temperature: 3 °C -1.8 °C -0.6 °C
Dew Point: 1.8 °C -2.8 °C -1.8 °C
Humidity: 95% 84% 91%
Wind Speed: 0km/h 0km/h 0km/h
Wind Gust: 0km/h - -
Wind- -
Pressure: 1024.6 hPa 1023.2 hPa -
Precipitation: 0 mm    
 
 
Tabular Data for January 7, 2021
Time Temperature Dew Point Pressure Wind Wind Speed Wind Gust Humidity Rainfall Rate (Hourly) solar
00:00 1.8 °C -0.6 °C 1024.6 hPa Calm     84% 0 mm 0 W/m2
00:09 1.7 °C -0.7 °C 1024.6 hPa Calm     84.7% 0 mm 0 W/m2
00:14 1.5 °C -0.9 °C 1024.6 hPa Calm     84% 0 mm 0 W/m2
00:19 1.3 °C -0.9 °C 1024.6 hPa Calm     84.8% 0 mm 0 W/m2
00:24 1.2 °C -1.1 °C 1024.6 hPa Calm     85% 0 mm 0 W/m2
00:29 1.1 °C -1.1 °C 1024.3 hPa Calm     85.8% 0 mm 0 W/m2
00:34 1 °C -0.9 °C 1024.3 hPa Calm     87.1% 0 mm 0 W/m2
00:39 0.9 °C -1 °C 1024.3 hPa Calm     86.8% 0 mm 0 W/m2
00:44 0.9 °C -1.1 °C 1024.3 hPa Calm     87% 0 mm 0 W/m2
00:49 0.8 °C -1.1 °C 1024.3 hPa Calm     87% 0 mm 0 W/m2
00:54 0.7 °C -1.2 °C 1024.3 hPa Calm     87% 0 mm 0 W/m2
00:59 0.6 °C -1.3 °C 1024.3 hPa Calm     87% 0 mm 0 W/m2
01:04 0.6 °C -1.3 °C 1024.3 hPa Calm     87.1% 0 mm 0 W/m2
01:09 0.5 °C -1.3 °C 1024.3 hPa Calm     88% 0 mm 0 W/m2
01:14 0.4 °C -1.3 °C 1024.3 hPa Calm     88% 0 mm 0 W/m2
01:19 0.4 °C -1.3 °C 1024.3 hPa Calm     88.2% 0 mm 0 W/m2
01:24 0.3 °C -1.2 °C 1024.3 hPa Calm     89% 0 mm 0 W/m2
01:29 0.3 °C -1.3 °C 1024.3 hPa Calm     89% 0 mm 0 W/m2
01:34 0.3 °C -1.3 °C 1024.3 hPa Calm     89% 0 mm 0 W/m2
01:39 0.3 °C -1.3 °C 1024.3 hPa Calm     89% 0 mm 0 W/m2
01:44 0.2 °C -1.4 °C 1024.3 hPa Calm     89% 0 mm 0 W/m2
01:49 0.2 °C -1.4 °C 1024.3 hPa Calm     89% 0 mm 0 W/m2
01:54 0.2 °C -1.4 °C 1024.3 hPa Calm     89.1% 0 mm 0 W/m2
01:59 0 °C -1.4 °C 1024.3 hPa Calm     90% 0 mm 0 W/m2
01:00 -0.3 °C -1.6 °C 1024.3 hPa Calm     91% 0 mm 0 W/m2
02:04 -0.3 °C -1.6 °C 1024.3 hPa Calm     91% 0 mm 0 W/m2
02:09 -0.4 °C -1.7 °C 1024.3 hPa Calm     91% 0 mm 0 W/m2
02:14 -0.4 °C -1.7 °C 1024.3 hPa Calm     91% 0 mm 0 W/m2
02:19 -0.4 °C -1.7 °C 1024.3 hPa Calm     91% 0 mm 0 W/m2
02:24 -0.5 °C -1.8 °C 1024.3 hPa Calm     91% 0 mm 0 W/m2
02:29 -0.5 °C -1.8 °C 1024.3 hPa Calm     91% 0 mm 0 W/m2
02:34 -0.5 °C -1.8 °C 1024.3 hPa Calm     91% 0 mm 0 W/m2
02:39 -0.6 °C -1.8 °C 1024.3 hPa Calm     91% 0 mm 0 W/m2
02:44 -0.6 °C -1.8 °C 1024.3 hPa Calm     91% 0 mm 0 W/m2
02:49 -0.6 °C -1.9 °C 1023.9 hPa Calm     91.3% 0 mm 0 W/m2
02:54 -0.7 °C -1.8 °C 1023.9 hPa Calm     92% 0 mm 0 W/m2
02:59 -0.7 °C -1.8 °C 1023.6 hPa Calm     92% 0 mm 0 W/m2
03:04 -0.8 °C -1.9 °C 1023.9 hPa Calm     92% 0 mm 0 W/m2
03:09 -0.8 °C -1.9 °C 1023.9 hPa Calm     92% 0 mm 0 W/m2
03:14 -0.8 °C -1.9 °C 1023.9 hPa Calm     92% 0 mm 0 W/m2
03:19 -0.8 °C -1.9 °C 1023.9 hPa Calm     92% 0 mm 0 W/m2
03:24 -0.9 °C -2 °C 1023.6 hPa Calm     92% 0 mm 0 W/m2
03:29 -0.9 °C -2.1 °C 1023.6 hPa Calm     92% 0 mm 0 W/m2
03:34 -0.9 °C -2.1 °C 1023.6 hPa Calm     92% 0 mm 0 W/m2
03:39 -0.9 °C -2.1 °C 1023.6 hPa Calm     92% 0 mm 0 W/m2
03:44 -1 °C -2.1 °C 1023.6 hPa Calm     92% 0 mm 0 W/m2
03:49 -1.1 °C -2.2 °C 1023.6 hPa Calm     92% 0 mm 0 W/m2
03:54 -1.1 °C -2.2 °C 1023.2 hPa Calm     92% 0 mm 0 W/m2
03:59 -1.2 °C -2.3 °C 1023.6 hPa Calm     92% 0 mm 0 W/m2
04:09 -1.2 °C -2.3 °C 1023.2 hPa Calm     92% 0 mm 0 W/m2
04:14 -1.2 °C -2.3 °C 1023.2 hPa Calm     92% 0 mm 0 W/m2
04:19 -1.2 °C -2.3 °C 1023.2 hPa Calm     92% 0 mm 0 W/m2
04:24 -1.2 °C -2.3 °C 1023.2 hPa Calm     92% 0 mm 0 W/m2
04:29 -1.2 °C -2.3 °C 1023.2 hPa Calm     92.1% 0 mm 0 W/m2
04:34 -1.2 °C -2.3 °C 1023.2 hPa Calm     92.4% 0 mm 0 W/m2
04:39 -1.3 °C -2.4 °C 1023.2 hPa Calm     92% 0 mm 0 W/m2
04:44 -1.3 °C -2.4 °C 1023.2 hPa Calm     92% 0 mm 0 W/m2
04:49 -1.4 °C -2.5 °C 1023.2 hPa Calm     92% 0 mm 0 W/m2
04:54 -1.4 °C -2.6 °C 1023.2 hPa Calm     92% 0 mm 0 W/m2
04:59 -1.4 °C -2.6 °C 1023.2 hPa Calm     92% 0 mm 0 W/m2
05:04 -1.4 °C -2.6 °C 1023.2 hPa Calm     92% 0 mm 0 W/m2
05:09 -1.4 °C -2.6 °C 1023.2 hPa Calm     92% 0 mm 0 W/m2
05:14 -1.5 °C -2.6 °C 1023.2 hPa Calm     92% 0 mm 0 W/m2
05:19 -1.5 °C -2.6 °C 1023.2 hPa Calm     92% 0 mm 0 W/m2
05:24 -1.6 °C -2.7 °C 1023.2 hPa Calm     92% 0 mm 0 W/m2
05:29 -1.6 °C -2.7 °C 1023.2 hPa Calm     92% 0 mm 0 W/m2
05:34 -1.6 °C -2.6 °C 1023.2 hPa Calm     93% 0 mm 0 W/m2
05:39 -1.6 °C -2.6 °C 1023.2 hPa Calm     93% 0 mm 0 W/m2
05:44 -1.6 °C -2.6 °C 1023.2 hPa Calm     93% 0 mm 0 W/m2
05:49 -1.6 °C -2.6 °C 1023.2 hPa Calm     93% 0 mm 0 W/m2
05:54 -1.6 °C -2.6 °C 1023.2 hPa Calm     93% 0 mm 0 W/m2
05:59 -1.7 °C -2.7 °C 1023.2 hPa Calm     93% 0 mm 0 W/m2
06:04 -1.7 °C -2.7 °C 1023.2 hPa Calm     93% 0 mm 0 W/m2
06:09 -1.7 °C -2.7 °C 1023.2 hPa Calm     93% 0 mm 0 W/m2
06:14 -1.7 °C -2.7 °C 1023.2 hPa Calm     93% 0 mm 0 W/m2
06:19 -1.7 °C -2.7 °C 1023.6 hPa Calm     93% 0 mm 0 W/m2
06:24 -1.7 °C -2.7 °C 1023.6 hPa Calm     93% 0 mm 0 W/m2
06:29 -1.8 °C -2.7 °C 1023.6 hPa Calm     93% 0 mm 0 W/m2
06:34 -1.8 °C -2.8 °C 1023.6 hPa Calm     93% 0 mm 0 W/m2
06:39 -1.8 °C -2.8 °C 1023.2 hPa Calm     93% 0 mm 7 W/m2
06:44 -1.8 °C -2.8 °C 1023.6 hPa Calm     93% 0 mm 11 W/m2
06:49 -1.8 °C -2.8 °C 1023.6 hPa Calm     93% 0 mm 12 W/m2
06:54 -1.8 °C -2.8 °C 1023.6 hPa Calm     93% 0 mm 18 W/m2
06:59 -1.8 °C -2.8 °C 1023.9 hPa Calm     93% 0 mm 21 W/m2
07:04 -1.7 °C -2.7 °C 1023.6 hPa Calm     93% 0 mm 18 W/m2
07:09 -1.7 °C -2.7 °C 1023.6 hPa Calm     93% 0 mm 19 W/m2
07:14 -1.6 °C -2.5 °C 1023.9 hPa Calm     93% 0 mm 14 W/m2
07:19 -1.4 °C -2.3 °C 1023.9 hPa Calm     93.5% 0 mm 16 W/m2
07:24 -1.3 °C -2.2 °C 1023.9 hPa Calm     94% 0 mm 18 W/m2
07:29 -1.3 °C -2.1 °C 1023.9 hPa Calm     93.9% 0 mm 19 W/m2
07:34 -1.2 °C -2.2 °C 1023.9 hPa Calm     93% 0 mm 21 W/m2
07:39 -1.2 °C -2.2 °C 1023.9 hPa Calm     93% 0 mm 30 W/m2
07:44 -1.3 °C -2.3 °C 1023.6 hPa Calm     93% 0 mm 37 W/m2
07:49 -1.2 °C -2.2 °C 1023.9 hPa Calm     93% 0 mm 63 W/m2
07:54 -1.1 °C -2.1 °C 1023.9 hPa Calm     93.1% 0 mm 79 W/m2
07:59 -0.9 °C -1.8 °C 1023.6 hPa Calm     94% 0 mm 181 W/m2
08:00 -0.8 °C -1.7 °C 1023.6 hPa Calm     94% 0 mm 181 W/m2
08:09 -0.1 °C -0.9 °C 1023.6 hPa Calm     94.2% 0 mm 229 W/m2
08:14 0.4 °C -0.4 °C 1023.6 hPa Calm     94.7% 0 mm 267 W/m2
08:19 0.8 °C 0.1 °C 1023.6 hPa Calm     95% 0 mm 302 W/m2
08:24 1.4 °C 0.7 °C 1023.6 hPa Calm     95% 0 mm 311 W/m2
08:29 2 °C 1.2 °C 1023.6 hPa Calm     94.6% 0 mm 325 W/m2
08:34 2.6 °C 1.7 °C 1023.6 hPa Calm     93.7% 0 mm 343 W/m2
08:38 3 °C 1.8 °C 1023.6 hPa Calm     92.1% 0 mm 334 W/m2
Hartford County Weather
Compliments of Weather Underground - 4 mb